Weather History for KNKX - February, 2014

Change the Weather History Date:

Saturday, February 15, 2014

  Actual Average Record
Temperature  
Mean Temperature 65 °F -  
Max Temperature 82 °F 63 °F 82 °F (2014)
Min Temperature 48 °F 44 °F 37 °F (2008)
Growing Degree Days 15 (Base 50)    
Moisture  
Dew Point 36 °F    
Average Humidity 42    
Maximum Humidity 71    
Minimum Humidity 12    
Precipitation  
Precipitation 0.00 in - - ()
Sea Level Pressure  
Sea Level Pressure 29.97 in    
Wind  
Wind Speed 4 mph (North)    
Max Wind Speed 9 mph    
Max Gust Speed -    
Visibility 10 miles    
Events      
Averages and records for this station are not official NWS values.
T = Trace of Precipitation, MM = Missing Value Source: NWS Daily Summary

Daily Weather History Graph

Daily Weather History Graph

Search for Another Location

Airport or City:

Trip Planner

Search our weather history database for the weather conditions in past years. The results will help you decide how hot, cold, wet, or windy it might be!

Date:

Astronomy

Feb. 15, 2014 Rise Set
Actual Time 6:31 AM PST 5:34 PM PST
Civil Twilight 6:06 AM PST 5:59 PM PST
Nautical Twilight 5:37 AM PST 6:28 PM PST
Astronomical Twilight 5:08 AM PST 6:56 PM PST
Moon 6:32 PM PST (2/15) 6:37 AM PST (2/15)
Length of Visible Light 11h 52m
Length of Day
11h 02m
Full, 99% of the Moon is Illuminated
Feb 15
Full
Feb 22
Last Quarter
Mar 1
New
Mar 8
First Quarter
Mar 16
Full

Hourly Weather History & Observations

Time (PST) Temp. Dew Point Humidity Pressure Visibility Wind Dir Wind Speed Gust Speed Precip Events Conditions
12:55 AM 48.9 °F 34.0 °F 56% 29.97 in 10.0 mi Calm Calm - N/A   Clear
1:55 AM 50.0 °F 41.0 °F 71% 29.96 in 10.0 mi North 4.6 mph - N/A   Clear
2:55 AM 48.0 °F 37.9 °F 68% 29.95 in 10.0 mi NE 8.1 mph - N/A   Clear
3:55 AM 48.0 °F 33.1 °F 56% 29.94 in 10.0 mi ENE 9.2 mph - N/A   Clear
4:55 AM 50.0 °F 30.9 °F 48% 29.93 in 10.0 mi ENE 9.2 mph - N/A   Partly Cloudy
5:55 AM 53.1 °F 30.0 °F 41% 29.94 in 10.0 mi East 8.1 mph - N/A   Partly Cloudy
6:55 AM 55.0 °F 28.9 °F 37% 29.97 in 10.0 mi ENE 8.1 mph - N/A   Partly Cloudy
7:55 AM 61.0 °F 30.9 °F 32% 30.00 in 10.0 mi NW 3.5 mph - N/A   Scattered Clouds
8:55 AM 70.0 °F 28.9 °F 22% 30.01 in 10.0 mi Calm Calm - N/A   Mostly Cloudy
9:55 AM 78.1 °F 21.9 °F 12% 30.02 in 10.0 mi Calm Calm - N/A   Mostly Cloudy
10:55 AM 78.1 °F 30.0 °F 17% 30.02 in 10.0 mi WNW 4.6 mph - N/A   Mostly Cloudy
11:55 AM 81.0 °F 30.9 °F 16% 30.00 in 10.0 mi South 5.8 mph - N/A   Mostly Cloudy
12:55 PM 82.9 °F 32.0 °F 16% 29.98 in 10.0 mi WSW 4.6 mph - N/A   Mostly Cloudy
1:55 PM 77.0 °F 39.0 °F 25% 29.97 in 10.0 mi West 9.2 mph - N/A   Mostly Cloudy
2:55 PM 73.9 °F 42.1 °F 32% 29.98 in 10.0 mi NW 9.2 mph - N/A   Mostly Cloudy
3:55 PM 73.0 °F 43.0 °F 34% 29.96 in 10.0 mi Calm Calm - N/A   Mostly Cloudy
4:55 PM 72.0 °F 41.0 °F 33% 29.96 in 10.0 mi West 3.5 mph - N/A   Mostly Cloudy
5:55 PM 64.0 °F 45.0 °F 50% 29.96 in 10.0 mi NW 5.8 mph - N/A   Mostly Cloudy
6:55 PM 61.0 °F 43.0 °F 52% 29.97 in 10.0 mi NNW 3.5 mph - N/A   Mostly Cloudy
7:55 PM 55.9 °F 37.9 °F 51% 29.97 in 10.0 mi NE 3.5 mph - N/A   Mostly Cloudy
8:55 PM 57.9 °F 37.0 °F 46% 29.97 in 10.0 mi NNE 3.5 mph - N/A   Mostly Cloudy
9:55 PM 53.1 °F 39.0 °F 59% 29.98 in 10.0 mi Calm Calm - N/A   Mostly Cloudy
10:55 PM 53.1 °F 37.9 °F 57% 29.98 in 10.0 mi NE 4.6 mph - N/A   Mostly Cloudy
11:55 PM 51.1 °F 42.1 °F 71% 29.97 in 10.0 mi North 3.5 mph - N/A   Mostly Cloudy